• In Portugal
  • List of Countries
  • For 7 days
  • Water Temperature
  • Satellite Maps
  • Weather Map
  • Weather Widgets
  • user-avatar
    Login

    Hourly Weather Miyadzaki

    Today, 25 September, Tuesday

    Time Temperature Precipitation Wind Pressure Humidity
    00:00 +21°C° 0 mm 5 mps 752 mmHg 75%
    01:00 +21°C° 0.1 mm 5 mps 752 mmHg 76%
    02:00 +21°C° 0.1 mm 6 mps 752 mmHg 78%
    03:00 +20°C° 0 mm 6 mps 751 mmHg 81%
    04:00 +20°C° 0.1 mm 6 mps 751 mmHg 81%
    05:00 +20°C° 0.1 mm 6 mps 751 mmHg 81%
    06:00 +20°C° 0.1 mm 6 mps 751 mmHg 81%
    07:00 +22°C° 0.1 mm 6 mps 751 mmHg 76%
    08:00 +23°C° 0.1 mm 6 mps 751 mmHg 71%
    09:00 +26°C° 0 mm 6 mps 751 mmHg 64%
    10:00 +27°C° 0 mm 6 mps 751 mmHg 60%
    11:00 +28°C° 0 mm 6 mps 751 mmHg 57%
    12:00 +29°C° 0 mm 6 mps 751 mmHg 54%
    13:00 +29°C° 0 mm 6 mps 751 mmHg 55%
    14:00 +29°C° 0 mm 6 mps 751 mmHg 56%
    15:00 +28°C° 0 mm 6 mps 750 mmHg 58%
    16:00 +27°C° 0 mm 6 mps 750 mmHg 63%
    17:00 +24°C° 0 mm 6 mps 750 mmHg 68%
    18:00 +23°C° 0 mm 6 mps 751 mmHg 74%
    19:00 +22°C° 0 mm 6 mps 751 mmHg 76%
    20:00 +22°C° 0 mm 6 mps 751 mmHg 78%
    21:00 +21°C° 0 mm 6 mps 751 mmHg 80%
    22:00 +21°C° 0 mm 6 mps 751 mmHg 80%
    23:00 +21°C° 0 mm 6 mps 751 mmHg 80%

    Tomorrow, 26 September, Wednesday

    Time Temperature Precipitation Wind Pressure Humidity
    00:00 +21°C° 0 mm 6 mps 751 mmHg 80%
    01:00 +21°C° 0 mm 6 mps 751 mmHg 80%
    02:00 +21°C° 0 mm 6 mps 750 mmHg 80%
    03:00 +21°C° 0 mm 6 mps 750 mmHg 80%
    04:00 +20°C° 0 mm 6 mps 750 mmHg 81%
    05:00 +20°C° 0 mm 6 mps 750 mmHg 81%
    06:00 +20°C° 0 mm 6 mps 750 mmHg 81%
    07:00 +22°C° 0.1 mm 6 mps 751 mmHg 79%
    08:00 +23°C° 0.1 mm 6 mps 751 mmHg 76%
    09:00 +24°C° 0.1 mm 7 mps 751 mmHg 73%
    10:00 +23°C° 0.8 mm 7 mps 751 mmHg 80%
    11:00 +22°C° 0.8 mm 7 mps 751 mmHg 87%
    12:00 +21°C° 0.8 mm 7 mps 751 mmHg 94%
    13:00 +21°C° 2.2 mm 7 mps 750 mmHg 95%
    14:00 +21°C° 2.2 mm 7 mps 750 mmHg 95%
    15:00 +21°C° 2.2 mm 7 mps 750 mmHg 96%
    16:00 +20°C° 3.4 mm 6 mps 750 mmHg 96%
    17:00 +20°C° 3.4 mm 6 mps 750 mmHg 96%
    18:00 +20°C° 3.4 mm 6 mps 750 mmHg 96%
    19:00 +20°C° 0.9 mm 6 mps 750 mmHg 96%
    20:00 +20°C° 0.9 mm 6 mps 750 mmHg 96%
    21:00 +20°C° 0.9 mm 6 mps 750 mmHg 96%
    22:00 +20°C° 1.1 mm 5 mps 750 mmHg 96%
    23:00 +20°C° 1.1 mm 5 mps 750 mmHg 96%

    Day after tomorrow, 27 September, Thursday

    Time Temperature Precipitation Wind Pressure Humidity
    00:00 +20°C° 1.1 mm 5 mps 750 mmHg 97%
    01:00 +19°C° 0.8 mm 5 mps 750 mmHg 96%
    02:00 +19°C° 0.8 mm 5 mps 749 mmHg 96%
    03:00 +19°C° 0.8 mm 5 mps 749 mmHg 96%
    04:00 +19°C° 0.1 mm 5 mps 749 mmHg 96%
    05:00 +19°C° 0.1 mm 5 mps 749 mmHg 95%
    06:00 +19°C° 0.1 mm 5 mps 749 mmHg 94%
    07:00 +20°C° 0 mm 5 mps 750 mmHg 92%
    08:00 +21°C° 0 mm 5 mps 750 mmHg 89%
    09:00 +22°C° 0 mm 5 mps 750 mmHg 87%
    10:00 +23°C° 0 mm 5 mps 750 mmHg 77%
    11:00 +26°C° 0 mm 5 mps 750 mmHg 68%
    12:00 +28°C° 0 mm 6 mps 750 mmHg 58%
    13:00 +28°C° 0 mm 5 mps 750 mmHg 58%
    14:00 +28°C° 0 mm 5 mps 750 mmHg 57%
    15:00 +28°C° 0 mm 5 mps 749 mmHg 56%
    16:00 +26°C° 0 mm 5 mps 750 mmHg 63%
    17:00 +25°C° 0 mm 5 mps 750 mmHg 70%
    18:00 +22°C° 0 mm 5 mps 750 mmHg 77%
    19:00 +21°C° 0 mm 5 mps 750 mmHg 79%
    20:00 +20°C° 0 mm 5 mps 751 mmHg 81%
    21:00 +20°C° 0 mm 5 mps 751 mmHg 84%
    22:00 +20°C° 0 mm 5 mps 751 mmHg 84%
    23:00 +19°C° 0 mm 5 mps 751 mmHg 84%

    28 September, Friday

    Time Temperature Precipitation Wind Pressure Humidity
    00:00 +19°C° 0 mm 5 mps 751 mmHg 85%
    01:00 +19°C° 0 mm 5 mps 751 mmHg 85%
    02:00 +19°C° 0 mm 5 mps 751 mmHg 86%
    03:00 +19°C° 0 mm 5 mps 751 mmHg 86%
    04:00 +19°C° 0 mm 5 mps 751 mmHg 87%
    05:00 +19°C° 0 mm 6 mps 751 mmHg 87%
    06:00 +19°C° 0 mm 6 mps 751 mmHg 88%
    07:00 +21°C° 0 mm 6 mps 752 mmHg 84%
    08:00 +22°C° 0 mm 6 mps 752 mmHg 79%
    09:00 +24°C° 0 mm 7 mps 752 mmHg 75%
    10:00 +26°C° 0 mm 7 mps 752 mmHg 73%
    11:00 +27°C° 0 mm 7 mps 752 mmHg 70%
    12:00 +28°C° 0 mm 7 mps 752 mmHg 68%
    13:00 +26°C° 0.2 mm 7 mps 752 mmHg 74%
    14:00 +24°C° 0.2 mm 7 mps 751 mmHg 79%
    15:00 +23°C° 0.2 mm 7 mps 751 mmHg 85%
    16:00 +23°C° 0.8 mm 6 mps 751 mmHg 89%
    17:00 +22°C° 0.8 mm 6 mps 751 mmHg 92%
    18:00 +22°C° 0.8 mm 6 mps 752 mmHg 95%
    19:00 +22°C° 0.6 mm 6 mps 752 mmHg 95%
    20:00 +22°C° 0.6 mm 5 mps 752 mmHg 95%
    21:00 +22°C° 0.6 mm 5 mps 753 mmHg 96%
    22:00 +22°C° 0.6 mm 5 mps 752 mmHg 96%
    23:00 +22°C° 0.6 mm 5 mps 752 mmHg 96%

    29 September, Saturday

    Time Temperature Precipitation Wind Pressure Humidity
    00:00 +22°C° 0.6 mm 4 mps 752 mmHg 96%
    01:00 +22°C° 0.8 mm 4 mps 751 mmHg 96%
    02:00 +22°C° 0.8 mm 4 mps 751 mmHg 96%
    03:00 +22°C° 0.8 mm 4 mps 751 mmHg 96%
    04:00 +22°C° 0.9 mm 4 mps 751 mmHg 96%
    05:00 +22°C° 0.9 mm 4 mps 751 mmHg 96%
    06:00 +23°C° 0.9 mm 4 mps 751 mmHg 96%
    07:00 +23°C° 1.3 mm 4 mps 751 mmHg 94%
    08:00 +25°C° 1.3 mm 4 mps 751 mmHg 92%
    09:00 +26°C° 1.3 mm 5 mps 752 mmHg 90%
    10:00 +27°C° 1.3 mm 5 mps 752 mmHg 86%
    11:00 +27°C° 1.3 mm 5 mps 751 mmHg 83%
    12:00 +28°C° 1.3 mm 5 mps 751 mmHg 79%
    13:00 +27°C° 0.6 mm 6 mps 751 mmHg 81%
    14:00 +26°C° 0.6 mm 7 mps 750 mmHg 83%
    15:00 +26°C° 0.6 mm 7 mps 750 mmHg 85%
    16:00 +24°C° 0.2 mm 7 mps 750 mmHg 87%
    17:00 +23°C° 0.2 mm 7 mps 750 mmHg 88%
    18:00 +23°C° 0.2 mm 7 mps 750 mmHg 89%
    19:00 +22°C° 0.3 mm 7 mps 750 mmHg 90%
    20:00 +22°C° 0.3 mm 6 mps 750 mmHg 92%
    21:00 +22°C° 0.3 mm 6 mps 750 mmHg 93%
    22:00 +22°C° 0.5 mm 5 mps 750 mmHg 94%
    23:00 +22°C° 0.5 mm 5 mps 749 mmHg 95%

    30 September, Sunday

    Time Temperature Precipitation Wind Pressure Humidity
    00:00 +23°C° 0.5 mm 4 mps 749 mmHg 96%
    01:00 +23°C° 0.7 mm 4 mps 748 mmHg 96%
    02:00 +23°C° 0.7 mm 4 mps 747 mmHg 97%
    03:00 +23°C° 0.7 mm 4 mps 746 mmHg 97%
    04:00 +23°C° 0.7 mm 4 mps 746 mmHg 97%
    05:00 +23°C° 0.7 mm 4 mps 746 mmHg 97%
    06:00 +25°C° 0.7 mm 5 mps 745 mmHg 97%
    07:00 +25°C° 0.8 mm 5 mps 745 mmHg 96%
    08:00 +25°C° 0.8 mm 5 mps 745 mmHg 96%
    09:00 +26°C° 0.8 mm 6 mps 745 mmHg 95%
    10:00 +26°C° 1.1 mm 6 mps 744 mmHg 95%
    11:00 +26°C° 1.1 mm 6 mps 744 mmHg 95%
    12:00 +27°C° 1.1 mm 7 mps 743 mmHg 94%
    13:00 +27°C° 1.2 mm 8 mps 743 mmHg 94%
    14:00 +27°C° 1.2 mm 8 mps 742 mmHg 94%
    15:00 +27°C° 1.2 mm 9 mps 741 mmHg 94%
    16:00 +27°C° 2.1 mm 10 mps 739 mmHg 94%
    17:00 +27°C° 2.1 mm 11 mps 738 mmHg 94%
    18:00 +27°C° 2.1 mm 12 mps 737 mmHg 94%
    19:00 +27°C° 4.1 mm 14 mps 734 mmHg 94%
    20:00 +27°C° 4.1 mm 16 mps 730 mmHg 93%
    21:00 +27°C° 4.1 mm 18 mps 727 mmHg 93%
    22:00 +27°C° 19.9 mm 21 mps 724 mmHg 92%
    23:00 +28°C° 19.9 mm 23 mps 720 mmHg 92%
    Show more